Volver al catálogo

ATHENA-FIDUS

ActivoMilitarGEO
NORAD 39509·PAYLOAD·🇫🇷 France🇮🇹 Italy

Lanzado Feb 6, 2014 desde Guiana Space Centre

Loading…

TLE

ActualizadoSource: Space-Track

Época: Sep 14, 2026, 13:59 UTC

1 39509U 14006B   26257.58264104  .00000146  00000-0  00000-0 0  9990
2 39509   0.0262 117.3907 0001533  66.7221  56.9968  1.00273171 45983

Sigue ATHENA-FIDUS en tiempo real con AllMySat

Download on the App Store